Regional Weather Roundup
Issued by NWS

Home | Current Version | Previous Version | Graphics & Text | Print | Product List | Glossary On
Versions: 1 2 3 4 5 6 7 8 9 10 11 12 13 14 15 16 17 18 19 20 21 22 23 24 25 26 27 28 29 30 31 32 33 34 35 36 37 38 39 40 41 42 43 44 45 46 47 48 49 50
000
ASUS45 KCYS 122110
RWRWY

WYOMING REGIONAL WEATHER ROUNDUP
NATIONAL WEATHER SERVICE CHEYENNE WY
200 PM MST FRI FEB 12 2016

NOTE:  "FAIR" INDICATES FEW OR NO CLOUDS BELOW 12,000 FEET
WITH NO SIGNIFICANT WEATHER AND/OR OBSTRUCTIONS TO VISIBILITY.

WYZ001-122200-
YELLOWSTONE NATIONAL PARK

CITY           SKY/WX    TMP DP  RH WIND       PRES   REMARKS
LK YELLOWSTONE   N/A     44  14  29 VRB5      30.29F
W YELLOWSTONE  NOT AVBL

$$
WYZ002>013-054>058-071-098>099-122200-
NORTHERN WYOMING

CITY           SKY/WX    TMP DP  RH WIND       PRES   REMARKS
JACKSON        SUNNY     34  30  86 CALM      30.29F
CODY           FAIR      54  25  32 SE7       30.14F
GREYBULL       FAIR      54  27  35 S7        30.15F
WORLAND        FAIR      50  27  40 N3        30.17F
SHERIDAN       PTSUNNY   48  30  49 SE9       30.18F
BUFFALO        FAIR      46  30  53 SE16      30.17F
GILLETTE       CLOUDY    40  30  67 SE10      30.21F WCI  33
HULETT         CLOUDY    36  30  80 NE5       30.25F WCI  32
NEWCASTLE      CLOUDY    32  30  93 S9        30.30S WCI  24

$$
WYZ014>020-022>026-101>103-122200-
CENTRAL WYOMING

CITY           SKY/WX    TMP DP  RH WIND       PRES   REMARKS
BIG PINEY      FAIR      44  27  51 VRB3      30.32F
PINEDALE         N/A     45  28  53 CALM      30.31F
DUBOIS         FAIR      54  14  20 MISG      30.21F
LANDER         FAIR      43  28  55 CALM      30.18F
RIVERTON       FAIR      45  29  53 CALM      30.20F
CASPER         FAIR      47  28  47 SW12      30.20F
DOUGLAS        FAIR      47  29  49 SE14      30.23F

$$
WYZ021-027>030-104>119-122200-
SOUTHERN WYOMING

CITY           SKY/WX    TMP DP  RH WIND       PRES   REMARKS
EVANSTON       FAIR      41  18  39 SW5       30.33F
KEMMERER       FAIR      45  16  31 NW5       30.33F
FORT BRIDGER   CLEAR     46  25  42 W3        30.35F
ROCK SPRINGS   FAIR      48  20  32 W10       30.31F
DIXON          FAIR      39  27  62 NW5       30.36F
RAWLINS        FAIR      44  21  40 SW16      30.28F
SARATOGA       MOCLDY    45  27  49 W9        30.30F
LARAMIE        FAIR      51  28  41 NE9       30.25F
CHEYENNE       FAIR      51  27  39 S12       30.24F
TORRINGTON     FAIR      42  30  62 E14       30.27F
PINE BLUFFS    FAIR      46  32  57 E14       30.26F

$$



USA.gov is the U.S. government's official web portal to all federal, state and local government web resources and services.